Gainesville, GA

1:40 AM EST on November 25, 2017 (GMT -0500)
Gilmer Memorial

Weather History for KGVL - December, 2012

Change the Weather History Date:

Thursday, December 20, 2012

  Actual Average Record
Temperature  
Mean Temperature 47 °F 43 °F  
Max Temperature 53 °F 51 °F 75 °F (1931)
Min Temperature 39 °F 34 °F 10 °F (1981)
Degree Days  
Heating Degree Days 18 22  
Month to date heating degree days 406  
Since 1 July heating degree days 941  
Moisture  
Dew Point 42 °F    
Average Humidity 86    
Maximum Humidity 100    
Minimum Humidity 57    
Precipitation  
Precipitation 1.33 in 0.13 in 1.43 in (1967)
Month to date precipitation 3.33  
Year to date precipitation 52.81  
Snow  
Snow 0.00 in - - ()
Month to date snowfall  
Since 1 July snowfall  
Snow Depth -    
Sea Level Pressure  
Sea Level Pressure 29.83 in    
Wind  
Wind Speed 7 mph (East)    
Max Wind Speed 24 mph    
Max Gust Speed 36 mph    
Visibility 5 miles    
Events Rain    
T = Trace of Precipitation, MM = Missing Value Source: NWS Daily Summary

Daily Weather History Graph

Daily Weather History Graph

Search for Another Location

Airport or City:

Trip Planner

Search our weather history database for the weather conditions in past years. The results will help you decide how hot, cold, wet, or windy it might be!

Date:

Astronomy

Dec. 20, 2012 Rise Set
Actual Time 7:37 AM EST 5:29 PM EST
Civil Twilight 7:09 AM EST 5:57 PM EST
Nautical Twilight 6:37 AM EST 6:28 PM EST
Astronomical Twilight 6:07 AM EST 6:59 PM EST
Moon 12:34 PM EST (12/20) 12:37 AM EST (12/20)
Length of Visible Light 10h 47m
Length of Day
9h 51m
First Quarter, 55% of the Moon is Illuminated
Dec 20
First Quarter
Dec 28
Full
Jan 4
Last Quarter
Jan 11
New
Jan 18
First Quarter

Hourly Weather History & Observations

Time (EST) Temp. Windchill Dew Point Humidity Pressure Visibility Wind Dir Wind Speed Gust Speed Precip Events Conditions
12:53 AM 53.1 °F - 37.9 °F 57% 30.06 in 10.0 mi SSE 3.5 mph - N/A   Clear
1:53 AM 51.1 °F - 37.9 °F 61% 30.05 in 10.0 mi Calm Calm - N/A   Clear
2:53 AM 46.0 °F - 41.0 °F 83% 30.07 in 10.0 mi Calm Calm - N/A   Clear
3:53 AM 48.0 °F - 37.9 °F 68% 30.04 in 10.0 mi ESE 4.6 mph - N/A   Clear
4:53 AM 46.9 °F - 39.9 °F 77% 30.01 in 10.0 mi East 8.1 mph - N/A   Clear
5:53 AM 46.9 °F - 41.0 °F 80% 30.01 in 10.0 mi ENE 5.8 mph - N/A   Overcast
6:53 AM 48.0 °F - 39.9 °F 74% 29.97 in 10.0 mi East 9.2 mph - N/A   Overcast
7:53 AM 46.9 °F - 39.0 °F 74% 29.95 in 10.0 mi East 10.4 mph - N/A   Overcast
8:53 AM 46.0 °F 41.4 °F 41.0 °F 83% 29.96 in 3.0 mi East 9.2 mph - 0.06 in Rain Rain
9:28 AM 44.6 °F 39.7 °F 42.8 °F 93% 29.95 in 2.0 mi East 9.2 mph - 0.06 in Rain Rain
9:50 AM 44.6 °F 39.2 °F 42.8 °F 93% 29.98 in 1.5 mi NNE 10.4 mph - 0.17 in Rain Heavy Rain
9:53 AM 45.0 °F 39.3 °F 42.1 °F 90% 29.95 in 1.5 mi NE 11.5 mph - 0.18 in Rain Heavy Rain
10:15 AM 44.6 °F 38.4 °F 42.8 °F 93% 29.92 in 2.0 mi ENE 12.7 mph - 0.13 in Rain Light Rain
10:17 AM 44.6 °F 38.4 °F 42.8 °F 93% 29.93 in 3.0 mi ENE 12.7 mph - 0.13 in Rain Light Rain
10:53 AM 46.0 °F 42.5 °F 43.0 °F 89% 29.91 in 6.0 mi East 6.9 mph - 0.15 in Rain Light Rain
11:32 AM 46.4 °F 42.9 °F 44.6 °F 93% 29.87 in 3.0 mi East 6.9 mph - 0.07 in Rain Light Rain
11:46 AM 44.6 °F 39.2 °F 44.6 °F 100% 29.83 in 2.5 mi East 10.4 mph - 0.10 in Rain Rain
11:53 AM 46.0 °F 39.9 °F 44.1 °F 93% 29.82 in 3.0 mi East 13.8 mph - 0.10 in Rain Light Rain
12:00 PM 46.4 °F 42.4 °F 44.6 °F 93% 29.85 in 2.0 mi SSE 8.1 mph 19.6 mph 0.03 in Rain Light Rain
12:02 PM 46.4 °F 42.4 °F 44.6 °F 93% 29.84 in 1.5 mi SE 8.1 mph 19.6 mph 0.04 in Rain Rain
12:33 PM 46.4 °F 41.9 °F 44.6 °F 93% 29.80 in 2.0 mi East 9.2 mph - 0.16 in Rain Light Rain
12:35 PM 46.4 °F 42.4 °F 44.6 °F 93% 29.79 in 1.5 mi East 8.1 mph - 0.19 in Rain Rain
12:53 PM 46.0 °F 41.4 °F 45.0 °F 96% 29.76 in 1.5 mi SE 9.2 mph 19.6 mph 0.25 in Rain Rain
1:04 PM 46.4 °F 40.4 °F 44.6 °F 93% 29.75 in 1.0 mi ESE 13.8 mph 20.7 mph 0.08 in Rain Rain
1:10 PM 46.4 °F 41.5 °F 44.6 °F 93% 29.74 in 1.8 mi ESE 10.4 mph 20.7 mph 0.09 in Rain Light Rain
1:16 PM 46.4 °F 42.4 °F 44.6 °F 93% 29.74 in 2.0 mi ESE 8.1 mph 20.7 mph 0.09 in Rain Light Rain
1:26 PM 46.4 °F 41.5 °F 44.6 °F 93% 29.72 in 1.5 mi ESE 10.4 mph 18.4 mph 0.11 in Rain Rain
1:53 PM 46.9 °F - 46.0 °F 97% 29.69 in 1.2 mi East 9.2 mph - 0.14 in Rain Light Rain
2:03 PM 46.4 °F 44.3 °F 46.4 °F 100% 29.71 in 1.0 mi Variable 4.6 mph - 0.02 in Rain Rain
2:24 PM 46.4 °F - 46.4 °F 100% 29.72 in 1.2 mi Calm Calm - 0.17 in Rain Light Rain
2:53 PM 48.0 °F - 46.0 °F 93% 29.69 in 1.8 mi East 5.8 mph - 0.27 in Rain Rain
2:58 PM 48.2 °F - 46.4 °F 93% 29.68 in 1.5 mi East 6.9 mph - 0.01 in Rain Rain
3:22 PM 48.2 °F - 46.4 °F 93% 29.70 in 1.0 mi NW 6.9 mph - 0.09 in Rain Rain
3:40 PM 48.2 °F - 46.4 °F 93% 29.72 in 2.0 mi NW 4.6 mph - 0.15 in Rain Rain
3:49 PM 48.2 °F - 46.4 °F 93% 29.70 in 1.8 mi North 4.6 mph - 0.18 in Rain Rain
3:53 PM 48.0 °F - 46.9 °F 96% 29.69 in 2.0 mi NNE 3.5 mph - 0.18 in Rain Rain
3:58 PM 48.2 °F - 46.4 °F 93% 29.69 in 3.0 mi East 4.6 mph - 0.00 in Rain Light Rain
4:50 PM 48.2 °F - 46.4 °F 93% 29.71 in 4.0 mi West 5.8 mph - 0.00 in   Overcast
4:53 PM 48.0 °F - 46.9 °F 96% 29.71 in 5.0 mi West 5.8 mph - 0.00 in   Overcast
5:53 PM 48.9 °F - 44.1 °F 83% 29.72 in 10.0 mi WSW 11.5 mph - N/A   Clear
6:53 PM 48.9 °F - 42.1 °F 77% 29.74 in 10.0 mi West 24.2 mph 35.7 mph N/A   Scattered Clouds
7:53 PM 43.0 °F 34.2 °F 32.0 °F 65% 29.80 in 10.0 mi WNW 20.7 mph 35.7 mph N/A   Mostly Cloudy
8:53 PM 41.0 °F 32.5 °F 28.9 °F 62% 29.82 in 10.0 mi West 17.3 mph 29.9 mph N/A   Overcast
9:53 PM 41.0 °F 31.9 °F 28.0 °F 60% 29.82 in 10.0 mi West 19.6 mph 34.5 mph N/A   Overcast
10:53 PM 41.0 °F 33.1 °F 27.0 °F 57% 29.83 in 10.0 mi West 15.0 mph 26.5 mph N/A   Overcast
11:53 PM 39.9 °F 30.5 °F 26.1 °F 58% 29.85 in 10.0 mi WNW 19.6 mph 29.9 mph N/A   Overcast